Flag for Tunisia Past Weather in Houmt Souk (Djerba), Tunisia — Yesterday and Last 2 Weeks

Now
81 °F

Scattered clouds.


Feels Like: 84 °F
Forecast: 78 / 86 °F
Wind: 9 mph from Northeast

Location: Djerba Mellita

Current Time: Aug 26, 2016 at 8:09:40 AM

Latest Report: Aug 26, 2016 at 7:30 AM


Visibility: N/A

Pressure: 29.98 "Hg

Humidity: 70%

Dew Point: 70 °F

Location of Houmt Souk (Djerba)Location

Past Weather in Houmt Souk (Djerba) — Graph

°F

Houmt Souk (Djerba) Temperature Yesterday

Maximum temperature yesterday: 86 °F (at 2:00 PM)
Minimum temperature yesterday: 77 °F (at 1:30 AM)
Average temperature yesterday: 80 °F

High & Low Weather Summary for the Past Weeks

 TemperatureHumidityPressure
High99 °F (Aug 20, 3:00 PM)89% (Aug 19, 7:00 AM)30.15 "Hg (Aug 19, 7:00 AM)
Low68 °F (Aug 15, 6:00 AM)22% (Aug 17, 3:00 PM)29.77 "Hg (Aug 17, 5:30 PM)
Average82 °F61%29.99 "Hg
* Reported Aug 11 7:00 AM — Aug 26 7:00 AM, Houmt Souk (Djerba), Weather by CustomWeather, © 2016

Note: Actual official high and low records may vary slightly from our data, if they occured in-between our weather recording intervals... More about our weather records

Advertising

Houmt Souk (Djerba) Weather History for the Previous 24 Hours

Scroll right to see more
 ConditionsComfort  
Time TempWeatherWind HumidityBarometerVisibility
7:00 AM
Fri, Aug 26
79 °FScattered clouds.9 mph74%29.98 "HgN/A
6:30 AM79 °FScattered clouds.12 mph74%29.98 "HgN/A
6:00 AM79 °FScattered clouds.9 mph74%29.98 "HgN/A
5:30 AM79 °FPassing clouds.10 mph74%29.95 "HgN/A
5:00 AM79 °FPassing clouds.9 mph74%29.95 "HgN/A
4:30 AM79 °FPassing clouds.10 mph74%29.95 "HgN/A
4:00 AM79 °FPassing clouds.10 mph74%29.95 "HgN/A
3:30 AM79 °FPassing clouds.8 mph74%29.95 "HgN/A
3:00 AM77 °FPassing clouds.7 mph79%29.95 "HgN/A
2:30 AM79 °FPassing clouds.7 mph74%29.95 "HgN/A
2:00 AM77 °FPassing clouds.5 mph79%29.95 "HgN/A
1:30 AM77 °FPassing clouds.5 mph79%29.95 "HgN/A
1:00 AM79 °FPassing clouds.6 mph70%29.95 "HgN/A
12:30 AM79 °FPassing clouds.6 mph70%29.95 "HgN/A
11:00 PM
Thu, Aug 25
79 °FPassing clouds.7 mph70%29.95 "HgN/A
10:30 PM79 °FPassing clouds.6 mph70%29.95 "HgN/A
10:00 PM79 °FPassing clouds.6 mph70%29.95 "HgN/A
9:30 PM79 °FPassing clouds.6 mph70%29.95 "HgN/A
8:30 PM81 °FPassing clouds.6 mph70%29.95 "HgN/A
8:00 PM81 °FPassing clouds.7 mph66%29.95 "HgN/A
7:00 PM81 °FPassing clouds.8 mph62%29.92 "HgN/A
6:30 PM81 °FPassing clouds.8 mph62%29.92 "HgN/A
5:30 PM82 °FPassing clouds.8 mph51%29.92 "HgN/A
5:00 PM84 °FPassing clouds.12 mph55%29.92 "HgN/A
4:30 PM84 °FPassing clouds.9 mph51%29.92 "HgN/A
4:00 PM86 °FPassing clouds.9 mph43%29.92 "HgN/A
3:00 PM86 °FPassing clouds.8 mph46%29.92 "HgN/A
2:30 PM86 °FScattered clouds.8 mph49%29.92 "HgN/A
2:00 PM86 °FScattered clouds.10 mph55%29.95 "HgN/A
1:30 PM84 °FScattered clouds.12 mph58%29.95 "HgN/A
1:00 PM84 °FScattered clouds.12 mph58%29.95 "HgN/A
12:30 PM84 °FScattered clouds.13 mph58%29.95 "HgN/A
12:00 PM82 °FScattered clouds.14 mph62%29.95 "HgN/A
11:30 AM82 °FScattered clouds.15 mph62%29.95 "HgN/A
11:00 AM82 °FScattered clouds.15 mph62%29.95 "HgN/A
10:30 AM82 °FScattered clouds.17 mph62%29.98 "HgN/A
10:00 AM81 °FScattered clouds.16 mph66%29.95 "HgN/A
9:30 AM79 °FScattered clouds.16 mph70%29.95 "HgN/A
8:30 AM79 °FScattered clouds.15 mph70%29.95 "HgN/A
8:00 AM79 °FScattered clouds.14 mph70%29.95 "HgN/A
Weather by CustomWeather, © 2016

See weather overviewHow to use our weather pages